| time (UTC) | temp F | wind direction | speed MPH | gust MPH | rain 1hr in | rain 24hr in | rain mn in | humidity % | barometer mb |
| 20260508065502 | 48 | 192 | 0.0 | 1.0 | 0.00 | 0.16 | 0.00 | 70 | 1011.2 |
| 20260508065003 | 48 | 192 | 0.0 | 2.0 | 0.00 | 0.19 | 0.00 | 71 | 1011.0 |
| 20260508064502 | 47 | 192 | 0.0 | 2.0 | 0.00 | 0.20 | 0.00 | 72 | 1011.0 |
| 20260508064003 | 47 | 192 | 0.0 | 2.0 | 0.00 | 0.22 | 0.00 | 73 | 1010.9 |
| 20260508063003 | 47 | 189 | 0.0 | 0.0 | 0.00 | 0.23 | 0.00 | 72 | 1010.3 |
| 20260508062503 | 47 | 188 | 0.0 | 0.0 | 0.00 | 0.23 | 0.00 | 72 | 1009.6 |
| 20260508062004 | 47 | 189 | 0.0 | 0.0 | 0.00 | 0.24 | 0.00 | 72 | 1009.3 |
| 20260508061502 | 46 | 188 | 0.0 | 0.0 | 0.00 | 0.25 | 0.00 | 72 | 1009.3 |
| 20260508061002 | 46 | 188 | 0.0 | 0.0 | 0.00 | 0.27 | 0.00 | 71 | 1009.2 |
| 20260508060502 | 46 | 188 | 0.0 | 0.0 | 0.00 | 0.28 | 0.00 | 71 | 1009.2 |
| 20260508060003 | 47 | 188 | 0.0 | 0.0 | 0.00 | 0.28 | 0.00 | 71 | 1009.3 |
| 20260508055502 | 47 | 188 | 0.0 | 0.0 | 0.00 | 0.28 | 0.00 | 71 | 1009.2 |
| 20260508055002 | 47 | 188 | 0.0 | 0.0 | 0.00 | 0.28 | 0.00 | 71 | 1009.1 |
| 20260508053503 | 47 | 188 | 0.0 | 0.0 | 0.00 | 0.28 | 0.00 | 72 | 1009.1 |
| 20260508053003 | 47 | 188 | 0.0 | 0.0 | 0.00 | 0.28 | 0.00 | 72 | 1009.1 |
| 20260508052502 | 47 | 188 | 0.0 | 0.0 | 0.00 | 0.28 | 0.00 | 71 | 1009.1 |
| 20260508052004 | 47 | 177 | 0.0 | 0.0 | 0.00 | 0.28 | 0.00 | 72 | 1009.1 |
| 20260508051504 | 47 | 177 | 0.0 | 0.0 | 0.00 | 0.28 | 0.00 | 71 | 1009.2 |
| 20260508050502 | 47 | 177 | 0.0 | 0.0 | 0.00 | 0.28 | 0.00 | 71 | 1009.0 |
| 20260508050002 | 47 | 177 | 0.0 | 0.0 | 0.00 | 0.28 | 0.00 | 71 | 1009.1 |
| 20260508045503 | 48 | 177 | 0.0 | 0.0 | 0.00 | 0.28 | 0.00 | 71 | 1009.0 |
| 20260508045002 | 48 | 177 | 0.0 | 0.0 | 0.00 | 0.28 | 0.00 | 70 | 1009.0 |
| 20260508044502 | 48 | 177 | 0.0 | 0.0 | 0.00 | 0.28 | 0.00 | 70 | 1008.9 |
| 20260508043502 | 48 | 177 | 0.0 | 0.0 | 0.00 | 0.28 | 0.00 | 71 | 1009.0 |
| 20260508042502 | 49 | 177 | 0.0 | 0.0 | 0.00 | 0.29 | 0.00 | 71 | 1009.1 |
| 20260508042002 | 49 | 177 | 0.0 | 0.0 | 0.00 | 0.29 | 0.00 | 71 | 1009.2 |
| 20260508041502 | 49 | 177 | 0.0 | 0.0 | 0.00 | 0.29 | 0.00 | 71 | 1009.2 |
| 20260508041002 | 49 | 177 | 0.0 | 0.0 | 0.00 | 0.29 | 0.00 | 71 | 1009.2 |
| 20260508040502 | 49 | 177 | 0.0 | 0.0 | 0.00 | 0.29 | 0.00 | 70 | 1009.2 |
| 20260508040002 | 49 | 177 | 0.0 | 0.0 | 0.00 | 0.29 | 0.00 | 70 | 1009.2 |
| 20260508035502 | 50 | 177 | 0.0 | 0.0 | 0.00 | 0.29 | 0.29 | 70 | 1009.1 |
| 20260508035002 | 50 | 177 | 0.0 | 1.0 | 0.00 | 0.29 | 0.29 | 70 | 1009.0 |
| 20260508034502 | 50 | 177 | 0.0 | 0.0 | 0.00 | 0.29 | 0.29 | 69 | 1009.1 |
| 20260508034003 | 50 | 177 | 0.0 | 0.0 | 0.00 | 0.29 | 0.29 | 69 | 1009.1 |
| 20260508033502 | 50 | 177 | 0.0 | 0.0 | 0.00 | 0.29 | 0.29 | 69 | 1009.1 |
| 20260508033003 | 50 | 177 | 0.0 | 0.0 | 0.00 | 0.29 | 0.29 | 69 | 1009.1 |
| 20260508032503 | 50 | 177 | 0.0 | 0.0 | 0.00 | 0.29 | 0.29 | 69 | 1009.1 |
| 20260508032002 | 50 | 177 | 0.0 | 0.0 | 0.00 | 0.29 | 0.29 | 69 | 1009.1 |
| 20260508031502 | 51 | 177 | 0.0 | 0.0 | 0.00 | 0.29 | 0.29 | 69 | 1009.0 |
| 20260508031002 | 51 | 177 | 0.0 | 0.0 | 0.00 | 0.29 | 0.29 | 69 | 1009.0 |
| 20260508030503 | 51 | 177 | 0.0 | 0.0 | 0.00 | 0.29 | 0.29 | 69 | 1009.0 |
| 20260508030002 | 51 | 177 | 0.0 | 0.0 | 0.00 | 0.29 | 0.29 | 68 | 1009.1 |
| 20260508025502 | 51 | 177 | 0.0 | 0.0 | 0.00 | 0.29 | 0.29 | 68 | 1009.1 |
| 20260508025002 | 51 | 177 | 0.0 | 0.0 | 0.00 | 0.31 | 0.29 | 68 | 1009.0 |
| 20260508024503 | 51 | 177 | 0.0 | 0.0 | 0.00 | 0.34 | 0.29 | 68 | 1009.1 |
| 20260508024003 | 51 | 177 | 0.0 | 0.0 | 0.00 | 0.36 | 0.29 | 68 | 1009.1 |
| 20260508023502 | 51 | 177 | 0.0 | 0.0 | 0.00 | 0.38 | 0.29 | 67 | 1009.1 |
| 20260508023002 | 52 | 177 | 0.0 | 0.0 | 0.00 | 0.38 | 0.29 | 67 | 1009.1 |
| 20260508022502 | 52 | 177 | 0.0 | 0.0 | 0.00 | 0.38 | 0.29 | 67 | 1009.0 |
| 20260508022003 | 52 | 177 | 0.0 | 0.0 | 0.00 | 0.38 | 0.29 | 67 | 1009.0 |
| 20260508021003 | 52 | 177 | 0.0 | 0.0 | 0.00 | 0.38 | 0.29 | 66 | 1009.0 |
| 20260508020002 | 52 | 177 | 0.0 | 2.0 | 0.00 | 0.38 | 0.29 | 65 | 1009.0 |
| 20260508015502 | 53 | 177 | 0.0 | 0.0 | 0.00 | 0.38 | 0.29 | 64 | 1009.0 |
| 20260508015003 | 53 | 177 | 0.0 | 1.0 | 0.00 | 0.38 | 0.29 | 63 | 1009.0 |
| 20260508013502 | 53 | 177 | 0.0 | 1.0 | 0.00 | 0.38 | 0.29 | 61 | 1009.0 |
| 20260508013003 | 53 | 182 | 1.0 | 3.0 | 0.00 | 0.38 | 0.29 | 60 | 1008.9 |
| 20260508012502 | 53 | 197 | 0.0 | 3.0 | 0.00 | 0.38 | 0.29 | 58 | 1008.9 |
| 20260508011002 | 54 | 194 | 0.0 | 0.0 | 0.00 | 0.38 | 0.29 | 56 | 1008.8 |
| 20260508010502 | 55 | 191 | 0.0 | 0.0 | 0.00 | 0.38 | 0.29 | 54 | 1008.6 |
| 20260508010002 | 55 | 191 | 0.0 | 0.0 | 0.00 | 0.38 | 0.29 | 54 | 1008.7 |
| 20260508005502 | 55 | 192 | 0.0 | 0.0 | 0.00 | 0.38 | 0.29 | 55 | 1008.5 |
| 20260508005003 | 55 | 191 | 0.0 | 0.0 | 0.00 | 0.38 | 0.29 | 49 | 1008.4 |
| 20260508004503 | 56 | 191 | 0.0 | 0.0 | 0.00 | 0.38 | 0.29 | 50 | 1008.3 |
| 20260508004003 | 56 | 191 | 0.0 | 0.0 | 0.00 | 0.38 | 0.29 | 50 | 1008.2 |
| 20260508003502 | 56 | 191 | 0.0 | 0.0 | 0.00 | 0.38 | 0.29 | 51 | 1008.2 |
| 20260508003002 | 56 | 191 | 0.0 | 0.0 | 0.00 | 0.38 | 0.29 | 50 | 1008.2 |
| 20260508002502 | 57 | 192 | 0.0 | 0.0 | 0.00 | 0.38 | 0.29 | 50 | 1008.1 |
| 20260508002002 | 57 | 192 | 0.0 | 0.0 | 0.00 | 0.38 | 0.29 | 50 | 1007.9 |
| 20260508001503 | 57 | 192 | 0.0 | 0.0 | 0.00 | 0.38 | 0.29 | 50 | 1007.9 |
| 20260508001002 | 58 | 191 | 0.0 | 0.0 | 0.00 | 0.38 | 0.29 | 48 | 1008.0 |
| 20260508000502 | 58 | 190 | 0.0 | 0.0 | 0.00 | 0.38 | 0.29 | 46 | 1008.0 |
| 20260508000002 | 58 | 352 | 0.0 | 0.0 | 0.00 | 0.38 | 0.29 | 46 | 1008.0 |
| 20260507235503 | 58 | 352 | 0.0 | 0.0 | 0.00 | 0.38 | 0.29 | 44 | 1007.9 |
| 20260507235002 | 59 | 352 | 0.0 | 0.0 | 0.00 | 0.38 | 0.29 | 43 | 1007.7 |
| 20260507234502 | 59 | 352 | 0.0 | 0.0 | 0.00 | 0.38 | 0.29 | 44 | 1007.6 |
| 20260507234002 | 59 | 352 | 0.0 | 0.0 | 0.00 | 0.38 | 0.29 | 43 | 1007.7 |
| 20260507233002 | 60 | 352 | 0.0 | 0.0 | 0.00 | 0.38 | 0.29 | 41 | 1007.6 |
| 20260507232503 | 60 | 13 | 1.0 | 2.0 | 0.00 | 0.38 | 0.29 | 40 | 1007.5 |
| 20260507231502 | 60 | 9 | 1.0 | 2.0 | 0.00 | 0.38 | 0.29 | 40 | 1007.3 |
| 20260507231004 | 61 | 351 | 0.0 | 3.0 | 0.00 | 0.38 | 0.29 | 39 | 1007.2 |
| 20260507230503 | 61 | 5 | 1.0 | 3.0 | 0.00 | 0.38 | 0.29 | 40 | 1007.2 |
| 20260507230004 | 61 | 342 | 1.0 | 3.0 | 0.00 | 0.38 | 0.29 | 39 | 1007.3 |
| 20260507225502 | 61 | 291 | 1.0 | 3.0 | 0.00 | 0.38 | 0.29 | 39 | 1007.3 |
| 20260507225003 | 61 | 333 | 1.0 | 3.0 | 0.00 | 0.38 | 0.29 | 41 | 1007.2 |
| 20260507224503 | 61 | 259 | 1.0 | 3.0 | 0.00 | 0.38 | 0.29 | 40 | 1007.2 |
| 20260507224003 | 62 | 291 | 1.0 | 3.0 | 0.00 | 0.38 | 0.29 | 39 | 1007.2 |
| 20260507223502 | 62 | 9 | 1.0 | 3.0 | 0.00 | 0.38 | 0.29 | 37 | 1007.1 |
| 20260507223002 | 62 | 349 | 1.0 | 3.0 | 0.00 | 0.38 | 0.29 | 37 | 1007.1 |
| 20260507222502 | 62 | 17 | 2.0 | 3.0 | 0.00 | 0.38 | 0.29 | 38 | 1007.1 |
| 20260507222004 | 62 | 253 | 1.0 | 2.0 | 0.00 | 0.38 | 0.29 | 40 | 1007.2 |
| 20260507221503 | 62 | 232 | 1.0 | 3.0 | 0.00 | 0.38 | 0.29 | 37 | 1007.2 |
| 20260507221003 | 63 | 262 | 1.0 | 3.0 | 0.00 | 0.38 | 0.29 | 39 | 1007.2 |
| 20260507220502 | 63 | 188 | 0.0 | 3.0 | 0.00 | 0.38 | 0.29 | 40 | 1007.2 |
| 20260507220004 | 64 | 262 | 1.0 | 3.0 | 0.00 | 0.38 | 0.29 | 37 | 1007.1 |
| 20260507215502 | 64 | 292 | 1.0 | 5.0 | 0.00 | 0.38 | 0.29 | 37 | 1007.2 |
| 20260507214502 | 64 | 275 | 2.0 | 5.0 | 0.00 | 0.38 | 0.29 | 38 | 1007.0 |
| 20260507214002 | 63 | 309 | 1.0 | 3.0 | 0.00 | 0.38 | 0.29 | 39 | 1007.0 |
| 20260507213502 | 63 | 233 | 2.0 | 5.0 | 0.00 | 0.38 | 0.29 | 38 | 1007.0 |
| 20260507213003 | 63 | 190 | 2.0 | 5.0 | 0.00 | 0.38 | 0.29 | 40 | 1007.0 |
| 20260507212503 | 63 | 267 | 1.0 | 3.0 | 0.00 | 0.38 | 0.29 | 37 | 1006.9 |
| 20260507211502 | 63 | 267 | 2.0 | 5.0 | 0.00 | 0.38 | 0.29 | 36 | 1006.9 |
| 20260507211003 | 63 | 329 | 1.0 | 3.0 | 0.00 | 0.38 | 0.29 | 33 | 1006.8 |
| 20260507210003 | 64 | 335 | 1.0 | 3.0 | 0.00 | 0.38 | 0.29 | 35 | 1006.9 |
| 20260507205503 | 64 | 209 | 1.0 | 3.0 | 0.00 | 0.38 | 0.29 | 36 | 1006.9 |
| 20260507205002 | 64 | 247 | 2.0 | 5.0 | 0.00 | 0.38 | 0.29 | 36 | 1006.9 |
| 20260507204504 | 64 | 222 | 2.0 | 5.0 | 0.00 | 0.38 | 0.29 | 36 | 1006.9 |
| 20260507204003 | 64 | 257 | 2.0 | 5.0 | 0.00 | 0.38 | 0.29 | 36 | 1007.0 |
| 20260507203503 | 64 | 321 | 1.0 | 3.0 | 0.00 | 0.38 | 0.29 | 34 | 1006.9 |
| 20260507203002 | 65 | 238 | 2.0 | 3.0 | 0.00 | 0.38 | 0.29 | 36 | 1007.1 |
| 20260507202002 | 65 | 349 | 1.0 | 3.0 | 0.00 | 0.38 | 0.29 | 31 | 1007.1 |
| 20260507201502 | 65 | 18 | 3.0 | 5.0 | 0.00 | 0.38 | 0.29 | 33 | 1007.1 |
| 20260507201003 | 65 | 1 | 2.0 | 5.0 | 0.00 | 0.38 | 0.29 | 34 | 1007.1 |
| 20260507200503 | 65 | 12 | 3.0 | 9.0 | 0.00 | 0.38 | 0.29 | 32 | 1007.1 |
| 20260507200003 | 66 | 359 | 1.0 | 3.0 | 0.00 | 0.38 | 0.29 | 33 | 1007.1 |
| 20260507195502 | 66 | 293 | 2.0 | 5.0 | 0.00 | 0.38 | 0.29 | 34 | 1007.3 |
| 20260507195002 | 66 | 255 | 2.0 | 5.0 | 0.00 | 0.38 | 0.29 | 36 | 1007.4 |
| 20260507194502 | 66 | 259 | 2.0 | 5.0 | 0.00 | 0.38 | 0.29 | 34 | 1007.3 |
| 20260507194002 | 65 | 285 | 1.0 | 5.0 | 0.00 | 0.38 | 0.29 | 33 | 1007.3 |
| 20260507193003 | 65 | 298 | 2.0 | 5.0 | 0.00 | 0.38 | 0.29 | 35 | 1007.5 |
| 20260507192003 | 65 | 4 | 2.0 | 3.0 | 0.00 | 0.38 | 0.29 | 33 | 1007.6 |
| 20260507191002 | 65 | 246 | 1.0 | 3.0 | 0.00 | 0.38 | 0.29 | 38 | 1007.6 |
| 20260507190502 | 65 | 217 | 1.0 | 3.0 | 0.00 | 0.38 | 0.29 | 36 | 1007.6 |
| 20260507190004 | 64 | 274 | 2.0 | 5.0 | 0.00 | 0.38 | 0.29 | 35 | 1007.8 |
| 20260507185502 | 64 | 325 | 2.0 | 3.0 | 0.00 | 0.38 | 0.29 | 38 | 1007.7 |
| 20260507185003 | 64 | 347 | 2.0 | 3.0 | 0.00 | 0.38 | 0.29 | 34 | 1007.8 |
| 20260507184502 | 64 | 341 | 3.0 | 6.0 | 0.00 | 0.38 | 0.29 | 36 | 1007.8 |
| 20260507184002 | 64 | 42 | 2.0 | 3.0 | 0.00 | 0.38 | 0.29 | 37 | 1007.9 |
| 20260507183502 | 64 | 342 | 2.0 | 5.0 | 0.00 | 0.38 | 0.29 | 33 | 1008.1 |
| 20260507182503 | 64 | 289 | 2.0 | 5.0 | 0.00 | 0.38 | 0.29 | 38 | 1008.1 |
| 20260507182003 | 63 | 284 | 2.0 | 5.0 | 0.00 | 0.38 | 0.29 | 39 | 1008.3 |
| 20260507181502 | 62 | 4 | 1.0 | 3.0 | 0.00 | 0.38 | 0.29 | 39 | 1008.3 |
| 20260507181002 | 62 | 22 | 2.0 | 5.0 | 0.00 | 0.38 | 0.29 | 38 | 1008.4 |
| 20260507180502 | 62 | 255 | 2.0 | 5.0 | 0.00 | 0.38 | 0.29 | 39 | 1008.5 |
| 20260507180002 | 62 | 347 | 2.0 | 9.0 | 0.00 | 0.38 | 0.29 | 42 | 1008.5 |
| 20260507175502 | 62 | 151 | 3.0 | 5.0 | 0.00 | 0.38 | 0.29 | 35 | 1008.5 |
| 20260507174503 | 62 | 312 | 2.0 | 6.0 | 0.00 | 0.38 | 0.29 | 41 | 1008.5 |
| 20260507174003 | 62 | 329 | 1.0 | 3.0 | 0.00 | 0.38 | 0.29 | 42 | 1008.6 |
| 20260507173503 | 62 | 311 | 2.0 | 9.0 | 0.00 | 0.38 | 0.29 | 40 | 1008.7 |
| 20260507173002 | 62 | 337 | 1.0 | 5.0 | 0.00 | 0.38 | 0.29 | 42 | 1008.8 |
| 20260507172502 | 62 | 354 | 1.0 | 5.0 | 0.00 | 0.38 | 0.29 | 43 | 1008.9 |
| 20260507171503 | 61 | 333 | 3.0 | 8.0 | 0.00 | 0.38 | 0.29 | 43 | 1009.0 |
| 20260507170503 | 61 | 307 | 3.0 | 6.0 | 0.00 | 0.38 | 0.29 | 40 | 1008.9 |
| 20260507170003 | 61 | 318 | 2.0 | 5.0 | 0.00 | 0.38 | 0.29 | 46 | 1009.0 |
| 20260507165503 | 61 | 8 | 1.0 | 5.0 | 0.00 | 0.38 | 0.29 | 51 | 1009.1 |
| 20260507165004 | 61 | 231 | 2.0 | 3.0 | 0.00 | 0.38 | 0.29 | 47 | 1009.2 |
| 20260507164502 | 61 | 9 | 3.0 | 6.0 | 0.00 | 0.38 | 0.29 | 49 | 1009.2 |
| 20260507163003 | 61 | 106 | 3.0 | 6.0 | 0.00 | 0.38 | 0.29 | 51 | 1009.5 |
| 20260507162503 | 61 | 260 | 3.0 | 5.0 | 0.00 | 0.38 | 0.29 | 60 | 1009.5 |
| 20260507162002 | 60 | 276 | 1.0 | 3.0 | 0.00 | 0.38 | 0.29 | 58 | 1009.5 |
| 20260507161502 | 60 | 1 | 2.0 | 5.0 | 0.00 | 0.38 | 0.29 | 63 | 1009.7 |
| 20260507160503 | 59 | 297 | 2.0 | 5.0 | 0.00 | 0.38 | 0.29 | 65 | 1009.8 |
| 20260507160002 | 59 | 306 | 2.0 | 7.0 | 0.00 | 0.38 | 0.29 | 66 | 1009.8 |
| 20260507155504 | 58 | 77 | 2.0 | 5.0 | 0.00 | 0.38 | 0.29 | 67 | 1009.9 |
| 20260507154503 | 58 | 45 | 2.0 | 7.0 | 0.00 | 0.38 | 0.29 | 68 | 1010.0 |
| 20260507153003 | 57 | 30 | 2.0 | 7.0 | 0.00 | 0.38 | 0.29 | 70 | 1010.1 |
| 20260507152503 | 57 | 15 | 5.0 | 12.0 | 0.00 | 0.38 | 0.29 | 68 | 1010.2 |
| 20260507151502 | 57 | 5 | 5.0 | 8.0 | 0.00 | 0.38 | 0.29 | 73 | 1010.2 |
| 20260507151002 | 57 | 346 | 1.0 | 5.0 | 0.00 | 0.38 | 0.29 | 74 | 1010.2 |
| 20260507150504 | 56 | 16 | 3.0 | 6.0 | 0.00 | 0.38 | 0.29 | 76 | 1010.4 |
| 20260507150003 | 56 | 22 | 3.0 | 9.0 | 0.00 | 0.38 | 0.29 | 77 | 1010.3 |
| 20260507145503 | 55 | 10 | 2.0 | 7.0 | 0.00 | 0.38 | 0.29 | 77 | 1010.3 |
| 20260507145003 | 55 | 10 | 2.0 | 5.0 | 0.00 | 0.38 | 0.29 | 79 | 1010.3 |
| 20260507144502 | 55 | 3 | 1.0 | 5.0 | 0.00 | 0.38 | 0.29 | 78 | 1010.3 |
| 20260507144002 | 55 | 6 | 2.0 | 7.0 | 0.00 | 0.38 | 0.29 | 80 | 1010.3 |
| 20260507143503 | 55 | 24 | 2.0 | 7.0 | 0.00 | 0.38 | 0.29 | 80 | 1010.3 |
| 20260507143003 | 54 | 309 | 1.0 | 3.0 | 0.00 | 0.38 | 0.29 | 82 | 1010.2 |
| 20260507142503 | 54 | 342 | 2.0 | 3.0 | 0.00 | 0.38 | 0.29 | 81 | 1010.2 |
| 20260507141503 | 54 | 359 | 1.0 | 3.0 | 0.00 | 0.38 | 0.29 | 83 | 1010.3 |
| 20260507141002 | 53 | 2 | 2.0 | 3.0 | 0.00 | 0.38 | 0.29 | 82 | 1010.2 |
| 20260507140503 | 53 | 0 | 2.0 | 5.0 | 0.00 | 0.38 | 0.29 | 82 | 1010.3 |
| 20260507135504 | 53 | 344 | 3.0 | 5.0 | 0.00 | 0.38 | 0.29 | 84 | 1010.3 |
| 20260507135003 | 53 | 354 | 2.0 | 6.0 | 0.00 | 0.38 | 0.29 | 85 | 1010.1 |
| 20260507134503 | 53 | 0 | 3.0 | 8.0 | 0.00 | 0.38 | 0.29 | 88 | 1010.2 |
| 20260507134003 | 53 | 317 | 2.0 | 5.0 | 0.00 | 0.38 | 0.29 | 89 | 1010.3 |
| 20260507133504 | 53 | 293 | 1.0 | 3.0 | 0.00 | 0.38 | 0.29 | 90 | 1010.2 |
| 20260507133002 | 52 | 326 | 1.0 | 3.0 | 0.00 | 0.38 | 0.29 | 90 | 1010.3 |
| 20260507132502 | 52 | 355 | 2.0 | 3.0 | 0.00 | 0.38 | 0.29 | 90 | 1010.4 |
| 20260507132002 | 52 | 353 | 2.0 | 3.0 | 0.00 | 0.38 | 0.29 | 90 | 1010.4 |
| 20260507131503 | 52 | 60 | 2.0 | 5.0 | 0.00 | 0.38 | 0.29 | 90 | 1010.5 |
| 20260507131002 | 52 | 345 | 2.0 | 3.0 | 0.00 | 0.38 | 0.29 | 90 | 1010.5 |
| 20260507130502 | 52 | 348 | 1.0 | 5.0 | 0.00 | 0.38 | 0.29 | 91 | 1010.4 |
| 20260507130003 | 52 | 14 | 1.0 | 3.0 | 0.00 | 0.38 | 0.29 | 91 | 1010.2 |
| 20260507125502 | 53 | 346 | 0.0 | 3.0 | 0.00 | 0.38 | 0.29 | 91 | 1010.3 |
| 20260507125002 | 53 | 15 | 1.0 | 3.0 | 0.00 | 0.38 | 0.29 | 91 | 1010.4 |
| 20260507124502 | 53 | 3 | 1.0 | 2.0 | 0.00 | 0.38 | 0.29 | 91 | 1010.3 |
| 20260507123502 | 53 | 16 | 1.0 | 3.0 | 0.00 | 0.38 | 0.29 | 91 | 1010.2 |
| 20260507123002 | 53 | 359 | 1.0 | 2.0 | 0.00 | 0.38 | 0.29 | 91 | 1010.1 |
| 20260507122502 | 53 | 19 | 0.0 | 3.0 | 0.00 | 0.38 | 0.29 | 91 | 1010.2 |
| 20260507122002 | 53 | 14 | 1.0 | 3.0 | 0.00 | 0.38 | 0.29 | 91 | 1010.2 |
| 20260507121504 | 53 | 20 | 0.0 | 2.0 | 0.00 | 0.38 | 0.29 | 91 | 1010.2 |
| 20260507121002 | 53 | 328 | 0.0 | 1.0 | 0.00 | 0.38 | 0.29 | 91 | 1010.2 |
| 20260507120502 | 53 | 350 | 0.0 | 1.0 | 0.00 | 0.38 | 0.29 | 91 | 1010.0 |
| 20260507120002 | 53 | 355 | 0.0 | 2.0 | 0.00 | 0.38 | 0.29 | 91 | 1009.9 |
| 20260507115504 | 53 | 0 | 1.0 | 3.0 | 0.00 | 0.38 | 0.29 | 91 | 1009.7 |
| 20260507115003 | 53 | 349 | 0.0 | 0.0 | 0.00 | 0.38 | 0.29 | 91 | 1009.9 |
| 20260507114502 | 53 | 351 | 0.0 | 0.0 | 0.00 | 0.38 | 0.29 | 91 | 1009.8 |
| 20260507114002 | 53 | 326 | 0.0 | 0.0 | 0.00 | 0.38 | 0.29 | 91 | 1009.8 |
| 20260507113503 | 53 | 20 | 0.0 | 0.0 | 0.00 | 0.38 | 0.29 | 91 | 1009.6 |
| 20260507113003 | 53 | 20 | 0.0 | 0.0 | 0.00 | 0.38 | 0.29 | 91 | 1009.6 |
| 20260507112503 | 53 | 15 | 0.0 | 0.0 | 0.00 | 0.38 | 0.29 | 91 | 1009.5 |
| 20260507112003 | 53 | 28 | 0.0 | 0.0 | 0.00 | 0.38 | 0.29 | 91 | 1009.4 |
| 20260507111506 | 53 | 28 | 0.0 | 0.0 | 0.00 | 0.38 | 0.29 | 91 | 1009.4 |
| 20260507111003 | 53 | 29 | 0.0 | 0.0 | 0.01 | 0.38 | 0.29 | 91 | 1009.4 |
| 20260507110002 | 53 | 29 | 0.0 | 0.0 | 0.01 | 0.38 | 0.29 | 91 | 1009.6 |
| 20260507105503 | 52 | 29 | 0.0 | 0.0 | 0.01 | 0.38 | 0.29 | 91 | 1009.5 |
| 20260507105003 | 52 | 29 | 0.0 | 0.0 | 0.01 | 0.38 | 0.29 | 91 | 1009.4 |
| 20260507104502 | 52 | 29 | 0.0 | 0.0 | 0.01 | 0.38 | 0.29 | 91 | 1009.5 |
| 20260507104003 | 52 | 29 | 0.0 | 0.0 | 0.01 | 0.38 | 0.29 | 91 | 1009.4 |
| 20260507103502 | 52 | 29 | 0.0 | 0.0 | 0.02 | 0.38 | 0.29 | 91 | 1009.1 |
| 20260507103002 | 52 | 29 | 0.0 | 0.0 | 0.02 | 0.38 | 0.29 | 91 | 1009.1 |
| 20260507102502 | 52 | 29 | 0.0 | 0.0 | 0.02 | 0.38 | 0.29 | 91 | 1008.9 |
| 20260507102006 | 52 | 13 | 0.0 | 0.0 | 0.03 | 0.38 | 0.29 | 91 | 1008.8 |
| 20260507101502 | 52 | 16 | 0.0 | 0.0 | 0.03 | 0.38 | 0.29 | 91 | 1008.9 |
| 20260507101003 | 52 | 22 | 0.0 | 0.0 | 0.02 | 0.37 | 0.28 | 91 | 1008.7 |
| 20260507100502 | 52 | 20 | 0.0 | 1.0 | 0.02 | 0.37 | 0.28 | 91 | 1008.6 |
| 20260507100003 | 52 | 20 | 0.0 | 1.0 | 0.02 | 0.37 | 0.28 | 90 | 1008.6 |
| 20260507095502 | 53 | 18 | 0.0 | 2.0 | 0.02 | 0.37 | 0.28 | 90 | 1008.6 |
| 20260507095002 | 53 | 26 | 0.0 | 2.0 | 0.02 | 0.37 | 0.28 | 90 | 1008.7 |
| 20260507094503 | 53 | 9 | 0.0 | 2.0 | 0.02 | 0.37 | 0.28 | 90 | 1008.6 |
| 20260507094003 | 53 | 0 | 1.0 | 2.0 | 0.02 | 0.37 | 0.28 | 90 | 1008.8 |
| 20260507093503 | 53 | 20 | 1.0 | 3.0 | 0.01 | 0.36 | 0.27 | 90 | 1008.7 |
| 20260507093003 | 53 | 12 | 0.0 | 2.0 | 0.01 | 0.36 | 0.27 | 90 | 1008.7 |
| 20260507092503 | 52 | 12 | 0.0 | 2.0 | 0.01 | 0.36 | 0.27 | 90 | 1008.8 |
| 20260507092002 | 52 | 12 | 0.0 | 1.0 | 0.00 | 0.35 | 0.26 | 90 | 1008.8 |
| 20260507091503 | 52 | 5 | 0.0 | 1.0 | 0.01 | 0.35 | 0.26 | 90 | 1008.9 |
| 20260507091003 | 52 | 1 | 0.0 | 1.0 | 0.01 | 0.35 | 0.26 | 90 | 1008.8 |
| 20260507090502 | 52 | 7 | 0.0 | 2.0 | 0.01 | 0.35 | 0.26 | 90 | 1008.6 |
| 20260507085004 | 52 | 347 | 0.0 | 2.0 | 0.03 | 0.35 | 0.26 | 90 | 1008.4 |
| 20260507083004 | 53 | 23 | 1.0 | 3.0 | 0.03 | 0.35 | 0.26 | 89 | 1008.1 |
| 20260507082503 | 53 | 4 | 1.0 | 2.0 | 0.03 | 0.35 | 0.26 | 89 | 1008.5 |
| 20260507082003 | 53 | 21 | 1.0 | 2.0 | 0.03 | 0.35 | 0.26 | 89 | 1008.5 |
| 20260507081003 | 53 | 350 | 0.0 | 2.0 | 0.05 | 0.34 | 0.25 | 89 | 1008.5 |
| 20260507080503 | 53 | 359 | 0.0 | 3.0 | 0.08 | 0.34 | 0.25 | 89 | 1008.5 |
| 20260507080004 | 53 | 4 | 1.0 | 2.0 | 0.09 | 0.33 | 0.24 | 89 | 1008.6 |
| 20260507075503 | 53 | 0 | 0.0 | 2.0 | 0.11 | 0.33 | 0.24 | 89 | 1008.6 |
| 20260507075003 | 53 | 16 | 0.0 | 2.0 | 0.13 | 0.32 | 0.23 | 89 | 1008.3 |
| 20260507073504 | 53 | 7 | 1.0 | 2.0 | 0.16 | 0.32 | 0.23 | 88 | 1008.5 |
| 20260507073004 | 53 | 12 | 1.0 | 3.0 | 0.17 | 0.32 | 0.23 | 88 | 1008.3 |
| 20260507072502 | 53 | 19 | 1.0 | 2.0 | 0.17 | 0.32 | 0.23 | 88 | 1008.4 |
| 20260507072003 | 53 | 22 | 1.0 | 2.0 | 0.18 | 0.32 | 0.23 | 87 | 1008.3 |
| 20260507071003 | 54 | 351 | 1.0 | 3.0 | 0.18 | 0.29 | 0.20 | 87 | 1007.9 |
| 20260507070009 | 54 | 9 | 1.0 | 3.0 | 0.14 | 0.24 | 0.15 | 87 | 1008.4 |